Notices

What's New in latest Release from April 7th, 2021:

- Updated Glossary, including Speed of Maximum Gust, and Total Hourly Precipitation

- Updated national and regional climate services offices contacts and prices information

- Addition of station inventory lists for 1981-2010, 1971-2000, and 1961-1990 Normals.

If you haven't already, please take our survey and provide feedback about our website: https://eccc.sondage-survey.ca/f/LanguageSelection.aspx?s=442ca660-fcf1-47c0-95a9-59707d6fd709

Hourly Data Report for August 29, 2004

SHERBROOKE A
QUEBEC

45°26'00.000" N
71°41'00.000" W
241.40 m
7028124
71610
YSC

Download Data

Hourly Data (August 2004)
Hourly Data Report for August 29, 2004
TIME
LST
Temp Definition
°C
Dew Point Definition
°C
Rel Hum Definition
%
Precip. Amount Definition
mm

Wind Dir Definition
10's deg

Wind Spd Definition
km/h
Visibility Definition
km
Stn Press Definition
kPa
Hmdx Definition


Wind Chill Definition


Weather Definition


00:00 17.5 16.3 93   10 7 8.0 98.56      
01:00 17.0 15.9 93   8 6 9.7 98.58      
02:00 17.2 15.9 92   8 7 9.7 98.55      
03:00 17.4 16.1 92   7 7 11.3 98.57      
04:00 17.2 15.5 90   5 7 15.0 98.55      
05:00 16.7 15.0 90   8 6 15.0 98.61      
06:00 16.9 14.9 88   5 9 15.0 98.61      
07:00 18.1 15.5 85   7 11 19.3 98.59     Mostly Cloudy
08:00 19.0 16.2 84   4 7 19.3 98.57     Mostly Cloudy
09:00 21.1 17.3 79   7 11 19.3 98.53 27   Mostly Cloudy
10:00 23.0 19.2 79   10 7 19.3 98.53 30   Mostly Cloudy
11:00 24.0 19.4 75   15 19 19.3 98.51 31   Cloudy
12:00 25.1 20.4 75   14 11 19.3 98.46 33   Cloudy
13:00 26.3 20.8 72   15 11 19.3 98.39 35   Mostly Cloudy
14:00 27.4 21.4 70   16 11 19.3 98.30 36   Mostly Cloudy
15:00 27.8 20.6 65   20 13 19.3 98.24 36   Mostly Cloudy
16:00 26.3 21.1 73   23 7 19.3 98.24 35   Cloudy
17:00 19.2 17.7 91   29 32 0.3 98.29     Heavy Rain
18:00 19.4 18.4 94   13 17 8.0 98.35     Moderate Rain
19:00 19.8 18.7 93   16 9 3.9 98.54     Heavy Rain
20:00 19.9 18.7 93   19 9 6.4 98.55     Moderate Rain
21:00 19.9 18.7 93   16 11 9.7 98.52     Rain
22:00 19.4 18.4 94     0 12.9 98.53      
23:00 19.6 18.6 94   23 4 15.0 98.49     Rain

Notes on Data Quality.

Legend

  • E = Estimated
  • M = Missing
  • NA = Not Available*
  • [empty] = Indicates an unobserved value
Date modified: